Location: Asheville, NC
(35.6000°N, 82.5500°W)
Time: 06:43:14
(UTC-05:00)

ISS - Pass Details

Date: 14 December 2017
Orbit: 402 x 407 km, 51.6° (Epoch: 18 January)

Event Time Altitude Azimuth Distance (km) Brightness Sun altitude
Rises 18:48:09 0° 314° (NW) 2,331 0.4 -17.7°
Reaches altitude 10° 18:50:15 10° 317° (NW) 1,467 -0.7 -18.1°
Enters shadow 18:53:27 65° 30° (NNE) 448 -3.9 -18.8°
